Skip Page Navigation
NASA JPL Caltech
NASA Logo - Jet Propulsion Laboratory + View the NASA Portal
+ Center for Near-Earth Object Studies
JPL Home Earth Solar System Stars & Galaxies Technology
JPL Solar System Dynamics
BODIES ORBITS EPHEMERIDES TOOLS PHYSICAL DATA DISCOVERY FAQ SITE MAP
IMPORTANT: The SSD Announcement email list is now available. Major changes are coming in the near future, including possible hostname and/or URL changes. To be notified of such changes, subscribe to this email list.

Please visit this page for more details.


JPL Small-Body Database Browser
Search: [ help ]  
300024 (2006 UZ91)
Classification: Main-belt Asteroid          SPK-ID: 2300024
Ephemeris | Orbit Diagram | Orbital Elements | Mission Design | Physical Parameters | Discovery Circumstances | Close-Approach Data ]

[ show orbit diagram ]
Orbital Elements at Epoch 2458600.5 (2019-Apr-27.0) TDB
Reference: JPL 6 (heliocentric ecliptic J2000)
 Element Value Uncertainty (1-sigma)   Units 
e .2413236107853711 6.3637e-08  
a 2.997515290719233 2.9336e-08 au
q 2.274144077378506 1.9935e-07 au
i 1.362980497551026 8.293e-06 deg
node 135.38062981441 0.00027575 deg
peri 235.3713259430222 0.0002767 deg
M 160.5022289586749 1.9548e-05 deg
tp 2457755.378588526574
(2017-Jan-01.87858853)
9.6315e-05 TDB
period 1895.573102656214
5.19
2.7828e-05
7.619e-08
d
yr
n .1899161786456782 2.788e-09 deg/d
Q 3.720886504059959 3.6416e-08 au
  Orbit Determination Parameters
   # obs. used (total)      186  
   data-arc span      5905 days (16.17 yr)  
   first obs. used      2001-11-20  
   last obs. used      2018-01-20  
   planetary ephem.      DE431  
   SB-pert. ephem.      SB431-N16  
   condition code      0  
   norm. resid. RMS      .58546  
   source      ORB  
   producer      Otto Matic  
   solution date      2018-Feb-06 09:00:16  

Additional Information
 Earth MOID = 1.27353 au 
 Jupiter MOID = 1.73863 au 
 T_jup = 3.209 
[ show covariance matrix ]

Ephemeris | Orbit Diagram | Orbital Elements | Mission Design | Physical Parameters | Discovery Circumstances | Close-Approach Data ]

Physical Parameter Table
Parameter Symbol Value Units Sigma Reference Notes
absolute magnitude H 16.6   n/a MPO433933  

300024 (2006 UZ91)          Discovered 2006-Oct-18 by Spacewatch at Kitt Peak
Reference: 20111012/Numbers.arcLast Updated: 2011-10-13

[ show close-approach data ]
Alternate Designations
 2006 UZ91 = 2001 WE81 
Ephemeris | Orbit Diagram | Orbital Elements | Mission Design | Physical Parameters | Discovery Circumstances | Close-Approach Data ]
ABOUT SSD CREDITS/AWARDS PRIVACY/COPYRIGHT GLOSSARY LINKS
FirstGov
(server date/time)  
NASA Home Page
Site Manager:   Ryan S. Park
Webmaster  Alan B. Chamberlin